Regional Weather Roundup
Issued by NWS

Home | Current Version | Previous Version | Text Only | Print | Product List | Glossary On
Versions: 1 2 3 4 5 6 7 8 9 10 11 12 13 14 15 16 17 18 19 20 21 22 23 24 25 26 27 28 29 30 31 32 33 34 35 36 37 38 39 40 41 42 43 44 45 46 47 48 49 50
000
ASHW40 PHFO 222030
RWRHI

WEATHER ROUNDUP FOR HAWAII
NATIONAL WEATHER SERVICE HONOLULU HI
1000 AM HST MON SEP 22 2014

THIS IS AN AUTOMATED REPORT THAT HAS NOT BEEN QUALITY CONTROLLED.

NOTE..."FAIR" INDICATES FEW OR NO CLOUDS BELOW 12,000 FEET WITH NO
SIGNIFICANT WEATHER AND/OR OBSTRUCTIONS TO VISIBILITY.

* - THESE SITES REPORT LIMITED FIELDS

HIZ001>004-222100-
KAUAI-NIIHAU-

CITY           SKY/WX    TMP DP  RH WIND       PRES   REMARKS
LIHUE APT      MOSUNNY   86  72  62 E10       30.08R HX  92
PORT ALLEN*      N/A     86 N/A N/A E14         N/A
POIPU*           N/A     86 N/A N/A NE8G15      N/A
PRINCEVILLE*   NOT AVBL
KOKOLE POINT*  NOT AVBL
MOLOAA DAIRY*  NOT AVBL
WAIMEA HTS*    NOT AVBL
PUU OPAE*      NOT AVBL
PUU LUA*       NOT AVBL
MAKAHA RIDGE*    N/A     86  72  62 CALM        N/A  HX  92
$$

HIZ005>011-222100-
OAHU-

CITY           SKY/WX    TMP DP  RH WIND       PRES   REMARKS
HONOLULU       MOSUNNY   87  67  51 E10G23    30.03S HX  90
KALAELOA       SUNNY     88  68  51 VRB6      30.05S HX  91
KANEOHE MCB    PTSUNNY   81  73  77 E8        30.06R
WHEELER FIELD  MOSUNNY   82  69  63 VRB6      30.07F
BELLOWS*         N/A    N/A N/A N/A NE13        N/A
KAHUKU*          N/A    N/A N/A N/A E10G18      N/A
WHEELER*       NOT AVBL
WAIANAE HARBOR NOT AVBL
DILLINGHAM*      N/A     93  72  49 NE3G9       N/A  HX 100
KAHUKU TRN*      N/A     82  72  69 E10G20      N/A
KAWAILOA*      NOT AVBL
KII*             N/A     84  73  70 E15         N/A  HX  91
MAKUA RANGE*     N/A     86  72  62 W6          N/A  HX  92
OAHU FOREST NW NOT AVBL
SCHOFIELD BRK*   N/A     82  66  57 MISG        N/A
SCHOFIELD S*   NOT AVBL
WAIANAE VLY*   NOT AVBL
KUAOKALA*      NOT AVBL
HONOULIUULI*   NOT AVBL
MOKUOLOE IS*     N/A    N/A N/A N/A MISG        N/A
PALEHUA*       NOT AVBL
WAIAWA PHB*    NOT AVBL
$$

HIZ012>013-222100-
MOLOKAI-

CITY           SKY/WX    TMP DP  RH WIND       PRES   REMARKS
MOLOKAI AIRPT  MOSUNNY   86  72  62 NE13G23   30.05S HX  92
KALAUPAPA      NOT AVBL
MAKAPULAPAI*   NOT AVBL
MOLOKAI 1*     NOT AVBL
PUU ALII*        N/A     71  61  71 E2G12       N/A
$$

HIZ016-222100-
KAHOOLAWE-

CITY           SKY/WX    TMP DP  RH WIND       PRES   REMARKS
KAHOOLAWE*     NOT AVBL
HAKIOAWA*      NOT AVBL
HONOKANAIA*      N/A     85  70  60 E16G25    30.05R
KANELOA*         N/A     81  70  69 E17G26    29.27R
KEALIALALO*    NOT AVBL
LUA MAKIKA*    NOT AVBL
$$

HIZ014>015-222100-
LANAI-

CITY           SKY/WX    TMP DP  RH WIND       PRES   REMARKS
LANAI CITY     PTSUNNY   82  68  61 E6        30.10
LANAI 1*       NOT AVBL
$$

HIZ017>028-222100-
MAUI-

CITY           SKY/WX    TMP DP  RH WIND       PRES   REMARKS
KAHULUI        MOSUNNY   89  69  51 NE21      30.03S HX  93
KAPALUA-W MAUI MOSUNNY   86  68  54 NE18      30.05
HANA AIRPORT   SUNNY     86  72  62 E5        30.09S HX  92
HANA*            N/A     84 N/A N/A E8          N/A
HALEAKALA SUMM   N/A     54  34  47 NE16        N/A
MAALAEA BAY*   NOT AVBL
HALEAKALA*     NOT AVBL
KAUPO GAP*     NOT AVBL
KULA 1*          N/A     66  53  63 NW3         N/A
$$

HIZ023>026-222100-
BIG ISLAND OF HAWAII COAST AND LOWER SLOPES-

CITY           SKY/WX    TMP DP  RH WIND       PRES   REMARKS
KAILUA KONA    MOSUNNY   86  73  65 S9        29.99F HX  93
HILO           MOSUNNY   84  72  67 N9        30.05S
HONOKAA*       NOT AVBL
KAWAIHAE MWT*    N/A     88 N/A N/A NW6         N/A
KAWAIHAE*        N/A     82 N/A N/A W10         N/A
SOUTH POINT*     N/A     79 N/A N/A NE13G21     N/A
UPOLU AIRPORT*   N/A    N/A N/A N/A NE18G26     N/A
KAMUELA*       CLEAR     77  64  65 N22       30.14S
HAKALAU*         N/A     66  54  65 NE6G14      N/A
KALOKO-HONOKO*   N/A     88  73  62 S7        29.99  HX  96
PALI 2*          N/A     79  63  57 NE16G24     N/A
KEALAKOMO*       N/A     90  66  45 N15G24      N/A  HX  92
KAUPULEHU*     NOT AVBL
KAPAPALA*        N/A     80  67  65 CALM        N/A
LOWER KAHUKU*  NOT AVBL
PUHE CS*       NOT AVBL
PUHO CS*         N/A     83  72  69 SW2         N/A
PTA KEAMUKU*     N/A    N/A N/A N/A NE16G23     N/A
WAIKOLOA*      NOT AVBL
$$

HIZ027>028-222100-
BIG ISLAND OF HAWAII INTERIOR AND SUMMMITS-

CITY           SKY/WX    TMP DP  RH WIND       PRES   REMARKS
BRADSHAW FIELD SUNNY     68  51  53 SE8       30.40S
MK VISITOR CEN NOT AVBL
MAUNA KEA*       N/A     48  19  32 E31         N/A
MAUNA LOA*       N/A    N/A N/A N/A MISG        N/A
MAUNA LOA 1*     N/A    N/A N/A N/A MISG        N/A
PTA KIPUKA*      N/A     75  55  50 N7          N/A
PTA RANGE 17*    N/A     73  48  40 E5G14       N/A
PTA WEST*        N/A    N/A N/A N/A NW8         N/A
NENE CABIN*    NOT AVBL
AHUMOA*        NOT AVBL
PTA PORTABLE*  NOT AVBL
PUU MALI*      NOT AVBL
$$

HIC003-222100-
NORTHWEST ISLANDS-

CITY           SKY/WX    TMP DP  RH WIND       PRES   REMARKS
MIDWAY ISLAND  SUNNY     86  72  62 E17       30.12R HX  92
MIDWAY NOS*    NOT AVBL
FRENCH FRIGATE NOT AVBL
$$

PHZ110>124-180-222100-
BUOY REPORTS

STATION/POSITION TIME  TEMP    WIND        PRES    WAVE   SWELL
                       AIR SEA DIR/SP/G            HT/PER HT/DIR
                 (UTC) (F)     (DEG/KT/KT) (MB)    (FT/S) (FT/D)
BUOY 51001       NOT AVBL
BUOY 51101       NOT AVBL
BUOY 51100       2000   80 82  130/  6/  8 1018.7R   4/ 9   3/320
BUOY 51003       2000   83 84   60/ 10/ 12 1016.7R   4/ 8   3
BUOY 51004       1924   80 81   70/ 16/ 17 1015.8S   5/ 8   3/110
BARBERS PT BUOY  NOT AVBL
WAIMEA BAY BUOY  2000      83                N/A     3/ 8
KAILUA BAY BUOY  2000      82                N/A     4/ 8   2/110
LANAI BUOY       NOT AVBL
BARBERS PT 2     2000      83                N/A     3/ 9   2/220
PAUWELA MAUI     2000      81                N/A     4/ 9   2/350
HILO             2000      81                N/A     4/10   2/ 70
KANEOHE BAY BUOY NOT AVBL
HANALEI KAUAI    NOT AVBL
KAHULUI HARBOR   2000   81 83   60/ 11/ 23 1017.0F
HONOLULU HARBOR  2000   86     120/  6/ 11 1017.5S
KILO NALU        NOT AVBL
HILO HARBOR      2000   81      10/  5/  6 1017.2F
MOKUOLOE         2000   85 85   90/  8/ 10 1018.2S
NAWILIWILI       2000      84                N/A
WHOTS BUOY       NOT AVBL
BUOY 51028       NOT AVBL
$$

......................KEY........................................
  SKY/WX - SKY CONDITIONS/PRESENT WEATHER
  TMP    - TEMPERATURE IN FAHRENHEIT
  DWPT   - DEWPOINT IN FAHRENHEIT
  RH     - RELATIVE HUMIDITY IN PERCENT
  WIND   - DIRECTION AND SPEED /MPH FOR ISLANDS...KTS FOR BUOYS/
  PRES   - MEAN SEA LEVEL PRESSURE IN INCHES OF HG
  VSB    - VISIBILITY IN MILES
  HX     - HEAT INDEX
  WCI    - WIND CHILL INDEX
  VRB    - VARIABLE WIND DIRECTION
  N/A    - NOT AVAILABLE



USA.gov is the U.S. government's official web portal to all federal, state and local government web resources and services.